Regional Weather Roundup
Issued by NWS

Home | Current Version | Previous Version | Graphics & Text | Print | Product List | Glossary On
Versions: 1 2 3 4 5 6 7 8 9 10 11 12 13 14 15 16 17 18 19 20 21 22 23 24 25 26 27 28 29 30 31 32 33 34 35 36 37 38 39 40 41 42 43 44 45 46 47 48 49 50
000
ASUS43 KMPX 191301
RWRMN
WEATHER ROUNDUP FOR MINNESOTA
NATIONAL WEATHER SERVICE TWIN CITIES/CHANHASSEN MN
800 AM CDT THU OCT 19 2017


NOTE: "FAIR" INDICATES FEW OR NO CLOUDS BELOW 12,000 FEET WITH NO
SIGNIFICANT WEATHER AND/OR OBSTRUCTIONS TO VISIBILITY. N/A MEANS
CURRENT SKY AND/OR WEATHER CONDITIONS ARE NOT AVAILABLE.

MNZ060>063-068>070-191400-
   Twin Cities Metro

CITY           SKY/WX    TMP DP  RH WIND       PRES   REMARKS
TWIN CITIES    CLOUDY    45  36  70 SE3       30.05S
ST PAUL        CLOUDY    42  38  85 SE6       30.06S
CRYSTAL        CLOUDY    39  31  72 CALM      30.04R
BLAINE         MOCLDY    39  36  87 CALM      30.03F
LAKEVILLE      CLOUDY    36  36 100 CALM      30.06S
EDEN PRAIRIE   CLOUDY    41  35  79 S3        30.04S
SOUTH ST PAUL  PTCLDY    40  36  84 CALM      30.05S
LAKE ELMO      FAIR      37  34  87 CALM      30.06S
$$
MNZ001>005-007-008-013>017-022>024-027-028-191400-
   Northwest Minnesota

CITY           SKY/WX    TMP DP  RH WIND       PRES   REMARKS
BEMIDJI        PTCLDY    37  25  62 S3        29.93S
HALLOCK        CLOUDY    36  23  60 SE8       29.85F
ROSEAU         CLOUDY    36  28  75 SW6       29.89R
WARROAD        CLOUDY    36  27  69 S5        29.89R
CROOKSTON      CLOUDY    32  27  80 S7        29.89F WCI  26
FOSSTON        CLOUDY    39  27  60 SE6       29.92S
DETROIT LAKES  CLOUDY    41  34  75 SE6       29.95S
MOORHEAD       CLOUDY    37  28  70 SE6       29.92F
PARK RAPIDS    CLOUDY    34  28  79 S7        29.96S WCI  28
MAHNOMEN       FAIR      38  28  64 S6        29.92S
$$
MNZ006-009>011-018-025>026-191400-
   North Central Minnesota

CITY           SKY/WX    TMP DP  RH WIND       PRES   REMARKS
BAUDETTE       CLOUDY    37  23  56 SW6       29.90R
FLAG ISLAND    MOCLDY    39  21  48 W7        29.86R
INTL FALLS     CLOUDY    39  22  50 SW7       29.90R
WASKISH        CLOUDY    43  30  61 S3        29.92R
BIG FORK       PTCLDY    36  25  64 CALM      29.93F
LONGVILLE      CLOUDY    34  30  86 S3        29.96S
GRAND RAPIDS   CLOUDY    42  27  55 CALM      29.97S
CRANE LAKE     PTCLDY    41  19  42 W6        29.92R
ORR            CLOUDY    39  21  48 W3        29.90S
COOK           CLOUDY    39  25  56 SW6       29.94R
WALKER         FAIR      40  27  59 S3        29.95S
$$
MNZ012-019>021-037-191400-
   Northeast Minnesota

CITY           SKY/WX    TMP DP  RH WIND       PRES   REMARKS
DULUTH         CLOUDY    40  27  59 W9        29.97R
ELY            CLEAR     43  21  42 W8        29.92R
HIBBING        CLOUDY    36  25  64 SW5       29.95R
EVELETH        MOCLDY    38  22  52 W3        29.96R
DULUTH HARBOR  MOCLDY    45  32  61 SW8       30.00R
TWO HARBORS    MOCLDY    43  28  56 SW5       29.95R
SILVER BAY     CLOUDY    41  27  56 SW3       29.92R
GRAND MARAIS     N/A     45  32  60 W12G20    29.89R
G MARAIS ARPRT PTCLDY    39  18  41 SW6       29.87R
$$
MNZ029>031-032-039>041-046>048-054>057-064-191400-
   West Central Minnesota

CITY           SKY/WX    TMP DP  RH WIND       PRES   REMARKS
FERGUS FALLS   CLOUDY    41  30  65 SE6       29.96F
WHEATON        PTCLDY    37  32  81 E8        29.95S
MORRIS         CLOUDY    37  34  87 SE9       29.96F
ALEXANDRIA     CLOUDY    43  31  62 S7        29.99S
ELBOW LAKE     FAIR      39  32  76 CALM      29.96F
WADENA         CLOUDY    30  28  93 CALM      29.96S
GLENWOOD       CLOUDY    39  32  75 S5        30.00R
APPLETON       CLOUDY    39  32  75 SE5       29.97F
BENSON         CLOUDY    39  30  70 S6        30.01S
ORTONVILLE     CLOUDY    39  30  70 NE7       29.95F
MADISON        CLOUDY    45  34  65 S7        29.98S
WILLMAR        FAIR      37  34  87 SE5       30.03R
$$
MNZ033>034-036-042>043-049>051-058-059-191400-
   Central Minnesota

CITY           SKY/WX    TMP DP  RH WIND       PRES   REMARKS
ST CLOUD       CLOUDY    34  32  92 CALM      30.02R
SAUK CENTRE    FAIR      37  31  79 SE5       30.00F
PAYNESVILLE    CLOUDY    36  35  95 CALM      30.02S
AITKIN         CLOUDY    39  28  65 SW3       29.98R
PINE RIVER     PTCLDY    28  27  93 CALM      30.00F
BRAINERD       CLOUDY    37  31  78 CALM      29.99S
STAPLES        CLOUDY    36  28  75 CALM      29.98R
LONG PRAIRIE   FAIR      36  32  87 SE6       30.01R
LITTLE FALLS   CLOUDY    34  28  80 CALM      30.01
LITCHFIELD     CLOUDY    43  36  75 CALM      30.03S
BUFFALO        CLOUDY    40  32  74 CALM      30.04R
MAPLE LAKE     CLOUDY    40  35  83 CALM      30.03S
HUTCHINSON     CLOUDY    40  34  80 S3        30.04S
$$
MNZ037-044-045-052-053-191400-
   East Central Minnesota

CITY           SKY/WX    TMP DP  RH WIND       PRES   REMARKS
PRINCETON      CLOUDY    36  30  80 CALM      30.02S
MORA           CLOUDY    34  30  86 CALM      30.04R
CAMBRIDGE      CLOUDY    37  30  75 CALM      30.03S
RUSH CITY      CLOUDY    39  32  77 CALM      30.03S
MOOSE LAKE     CLOUDY    34  30  86 CALM      29.99R
HINCKLEY       FAIR      34  32  93 CALM      30.02R
CLOQUET        CLOUDY    41  25  52 SW6       29.98S
MCGREGOR       CLOUDY    39  30  70 CALM      29.99S
$$
MNZ071>073-080-081-089-090-097-098-191400-
   Southwest Minnesota

CITY           SKY/WX    TMP DP  RH WIND       PRES   REMARKS
MONTEVIDEO     CLOUDY    45  30  57 S6        30.00S
GRANITE FALLS  CLOUDY    43  35  73 S9        30.02F
CANBY          CLOUDY    53  30  42 S9        29.99F
MARSHALL       CLOUDY    49  30  48 SW14      30.01F
REDWOOD FALLS  CLOUDY    41  32  70 S7        30.03S
OLIVIA         CLOUDY    41  34  75 S5        30.02S
PIPESTONE      CLOUDY    46  27  46 S7        30.03S
WORTHINGTON    CLOUDY    43  31  62 S5        30.06S
JACKSON        CLOUDY    41  32  70 S6        30.07S
TRACY          CLOUDY    51  32  47 S13       30.02F
SLAYTON        CLOUDY    43  26  51 S6        30.05S
$$
MNZ065>067-074>077-082>085-091>093-191400-
   South Central Minnesota

CITY           SKY/WX    TMP DP  RH WIND       PRES   REMARKS
MANKATO        CLOUDY    41  32  70 S8        30.07S
NEW ULM          N/A     39  30  70 S3        30.05S
ST JAMES       CLOUDY    39  34  81 S3        30.07S
FAIRMONT       CLOUDY    36  32  85 S5        30.09R
GLENCOE        CLOUDY    41  33  73 CALM      30.04S
FARIBAULT      PTCLDY    37  34  87 CALM      30.08R
OWATONNA       CLOUDY    41  34  75 SE5       30.08R
WASECA         CLOUDY    36  32  87 S5        30.09S
$$
MNZ078>079-086>088-094>096-191400-
   Southeast Minnesota

CITY           SKY/WX    TMP DP  RH WIND       PRES   REMARKS
ROCHESTER      CLOUDY    39  34  82 S7        30.10R
RED WING       CLOUDY    36  32  87 E3        30.06F
STANTON        CLOUDY    38  33  83 S3        30.06S
DODGE CENTER   PTCLDY    37  32  81 S5        30.09R
WINONA         CLOUDY    37  36  93 CALM      30.11R
AUSTIN         CLOUDY    39  32  75 CALM      30.10R
PRESTON        CLOUDY    42  30  62 SW6       30.12R
$$
ABBREVIATIONS USED IN REMARKS
   TC - TEMPERATURES IN CELSIUS
  WCI - WIND CHILL INDEX
   HX - HEAT INDEX
  VSB - VISIBILITY
$$




USA.gov is the U.S. government's official web portal to all federal, state and local government web resources and services.